Regional Weather Roundup
Issued by NWS

Home | Current Version | Previous Version | Text Only | Print | Product List | Glossary On
Versions: 1 2 3 4 5 6 7 8 9 10 11 12 13 14 15 16 17 18 19 20 21 22 23 24 25 26 27 28 29 30 31 32 33 34 35 36 37 38 39 40 41 42 43 44 45 46 47 48 49 50
000
ASUS45 KBOI 310910
RWRID

IDAHO REGIONAL WEATHER ROUNDUP
NATIONAL WEATHER SERVICE BOISE ID
300 AM MDT MON AUG 31 2015

NOTE: "FAIR" INDICATES FEW OR NO CLOUDS BELOW 12000 FEET
WITH NO SIGNIFICANT WEATHER AND/OR OBSTRUCTIONS TO VISIBILITY

IDZ012-014-311000-
SOUTHWEST IDAHO


CITY           SKY/WX    TMP DP  RH WIND       PRES   REMARKS
BOISE          CLEAR     58  43  57 CALM      30.05R
CALDWELL       CLEAR     57  37  47 W5        30.07R
MOUNTAIN HOME  CLEAR     58  42  54 NW6       30.05R
$$

IDZ016-017-311000-
SOUTHCENTRAL IDAHO


CITY           SKY/WX    TMP DP  RH WIND       PRES   REMARKS
BURLEY         CLEAR     51  37  58 VRB3      30.07R
JEROME         CLEAR     55  37  50 S3        30.08R
TWIN FALLS     CLEAR     58  32  37 S13       30.08R
$$

IDZ019>023-311000-
SOUTHEAST IDAHO


CITY           SKY/WX    TMP DP  RH WIND       PRES   REMARKS
IDAHO FALLS    CLEAR     51  36  56 SW12      30.07R
POCATELLO      CLEAR     50  35  56 SW8       30.08R
REXBURG        CLEAR     56  29  35 SW8       30.07R
$$

IDZ006-010-011-018-031-032-311000-
CENTRAL IDAHO MOUNTAINS


CITY           SKY/WX    TMP DP  RH WIND       PRES   REMARKS
MCCALL         PTCLDY    41  37  86 CALM      30.11R
HAILEY         CLEAR     48  32  53 NW8       30.13S
STANLEY          N/A     36  28  73 SW5       30.19R WCI  32
SALMON         PTCLDY    52  37  58 CALM      30.08F
CHALLIS        CLEAR     50  32  50 CALM      30.10S
$$

IDZ002-004-006-007-026-311000-
NORTHERN IDAHO


CITY           SKY/WX    TMP DP  RH WIND       PRES   REMARKS
LEWISTON       MOCLDY    57  50  77 SE6       30.03S
LOWELL           N/A     54  51  90 S3        30.10R
COEUR D`ALENE  CLOUDY    55  37  50 S7        30.01R
MULLAN PASS    MOCLDY    40  38  93 SW8G21    30.07S WCI  34
$$


USA.gov is the U.S. government's official web portal to all federal, state and local government web resources and services.